�N����,����,�~����,�C��,���x,�C��,����,���ϕ���,�ő�u�ԕ���,�ő厞����,���˗�,�I�_���x,�n�����x,�ő啗���N��,DTYPE
"16/10/25","00:10",0.0,9.5,84.9,1013.3,308.4,1.8,2.5,319.5,0.00,7.1,15.7,"00:09:50",1
"16/10/25","00:20",0.0,9.7,83.6,1013.3,304.8,2.1,2.6,311.9,0.00,7.1,15.6,"00:11:12",1
"16/10/25","00:30",0.0,9.6,83.3,1013.5,319.0,2.0,2.9,329.3,0.00,7.0,15.4,"00:28:38",1
"16/10/25","00:40",0.0,9.5,83.4,1013.3,308.3,1.8,2.2,308.1,0.00,6.9,15.5,"00:38:34",1
"16/10/25","00:50",0.0,9.6,82.4,1013.3,312.2,1.8,2.7,332.6,0.00,6.8,15.4,"00:49:06",1
"16/10/25","01:00",0.0,9.4,82.6,1012.8,330.7,1.7,2.6,344.2,0.00,6.6,15.5,"00:52:10",1
"16/10/25","01:10",0.0,9.2,83.4,1013.5,308.1,1.6,2.0,325.6,0.00,6.6,15.2,"01:03:38",1
"16/10/25","01:20",0.0,8.9,83.6,1013.3,290.6,1.1,1.6,319.4,0.00,6.3,15.4,"01:13:00",1
"16/10/25","01:30",0.0,8.6,84.3,1013.3,318.1,1.6,2.6,345.9,0.00,6.1,15.3,"01:23:46",1
"16/10/25","01:40",0.0,8.2,86.2,1013.0,299.4,1.2,1.9,324.4,0.00,6.1,15.2,"01:36:42",1
"16/10/25","01:50",0.0,8.2,87.0,1013.0,294.0,1.3,1.9,306.7,0.00,6.2,15.3,"01:42:06",1
"16/10/25","02:00",0.0,8.2,87.7,1012.8,286.7,1.2,1.6,308.7,0.00,6.3,15.2,"01:53:36",1
"16/10/25","02:10",0.0,8.0,88.1,1012.8,289.6,1.3,1.8,314.5,0.00,6.2,15.1,"02:03:56",1
"16/10/25","02:20",0.0,7.8,88.7,1013.0,305.2,1.5,2.5,330.1,0.00,6.1,15.2,"02:13:26",1
"16/10/25","02:30",0.0,7.7,89.3,1012.3,308.7,1.3,1.9,319.2,0.00,6.1,15.0,"02:27:52",1
"16/10/25","02:40",0.0,7.7,89.6,1012.3,297.1,1.5,2.1,320.6,0.00,6.1,14.9,"02:34:14",1
"16/10/25","02:50",0.0,8.0,89.7,1012.1,307.3,1.5,2.4,304.7,0.00,6.5,15.0,"02:45:16",1
"16/10/25","03:00",0.0,8.1,89.4,1012.3,296.3,1.2,1.7,297.2,0.00,6.5,15.0,"02:55:18",1
"16/10/25","03:10",0.0,8.2,89.3,1012.1,300.4,1.3,2.4,308.8,0.00,6.6,15.0,"03:06:00",1
"16/10/25","03:20",0.0,8.0,88.7,1012.1,320.3,1.8,2.2,326.5,0.00,6.3,14.8,"03:15:22",1
"16/10/25","03:30",0.0,7.7,89.9,1012.3,300.2,1.5,2.1,322.7,0.00,6.2,14.8,"03:20:42",1
"16/10/25","03:40",0.0,7.6,91.6,1012.3,303.2,1.6,1.9,314.4,0.00,6.4,14.9,"03:37:22",1
"16/10/25","03:50",0.0,7.9,92.3,1012.3,293.0,1.2,1.6,301.6,0.00,6.8,14.8,"03:43:04",1
"16/10/25","04:00",0.0,8.1,92.2,1012.1,297.7,1.2,1.7,318.0,0.00,7.0,14.8,"03:57:36",1
"16/10/25","04:10",0.0,8.2,92.0,1012.1,300.1,1.2,1.6,303.2,0.00,7.0,14.7,"04:05:12",1
"16/10/25","04:20",0.0,8.3,92.1,1012.1,313.2,1.3,2.6,324.3,0.00,7.1,14.9,"04:14:38",1
"16/10/25","04:30",0.0,8.5,92.7,1012.1,297.6,1.1,1.7,318.8,0.00,7.4,15.0,"04:21:34",1
"16/10/25","04:40",0.0,8.8,93.0,1012.3,299.0,0.8,1.7,312.9,0.00,7.8,14.9,"04:36:08",1
"16/10/25","04:50",0.0,9.2,92.8,1012.3,295.7,1.0,1.4,304.6,0.00,8.1,14.8,"04:44:34",1
"16/10/25","05:00",0.0,9.4,92.4,1012.3,284.6,0.7,1.1,279.8,0.00,8.3,14.8,"04:50:58",1
"16/10/25","05:10",0.0,9.8,92.0,1011.9,294.9,1.2,1.3,298.9,0.00,8.6,14.8,"05:09:02",1
"16/10/25","05:20",0.0,10.1,92.3,1012.1,309.3,1.0,1.1,322.9,0.00,8.9,14.9,"05:18:48",1
"16/10/25","05:30",0.0,10.2,91.9,1012.1,308.4,1.2,1.7,322.8,0.00,9.0,14.9,"05:24:58",1
"16/10/25","05:40",0.0,10.3,91.7,1012.3,299.6,1.1,1.6,316.4,0.00,9.1,15.0,"05:34:50",1
"16/10/25","05:50",0.0,10.6,91.9,1012.6,293.4,0.8,1.3,308.7,0.00,9.4,15.0,"05:41:04",1
"16/10/25","06:00",0.0,10.8,91.8,1012.3,299.0,1.0,1.2,257.9,0.00,9.6,15.1,"05:52:32",1
"16/10/25","06:10",0.0,11.2,91.3,1012.1,309.2,1.0,1.8,312.7,0.00,9.9,15.2,"06:03:04",1
"16/10/25","06:20",0.0,11.5,91.2,1012.3,286.5,0.8,1.3,291.1,0.00,10.2,15.1,"06:12:26",1
"16/10/25","06:30",0.0,11.7,90.5,1012.6,308.3,1.1,1.8,340.1,0.00,10.2,15.2,"06:26:56",1
"16/10/25","06:40",0.0,12.2,89.7,1012.8,298.1,1.0,1.8,332.6,0.00,10.6,15.1,"06:31:28",1
"16/10/25","06:50",0.0,12.4,89.4,1012.6,326.2,0.8,1.3,332.5,0.00,10.7,15.3,"06:46:56",1
"16/10/25","07:00",0.0,12.6,89.6,1012.6,293.0,0.7,1.3,321.3,0.00,11.0,15.4,"06:54:24",1
"16/10/25","07:10",0.0,12.7,89.6,1012.6,287.5,0.7,1.3,311.6,0.00,11.1,15.3,"07:04:16",1
"16/10/25","07:20",0.0,13.0,89.9,1012.8,297.7,0.7,1.1,326.3,0.01,11.4,15.5,"07:10:24",1
"16/10/25","07:30",0.0,13.5,88.8,1012.8,289.4,0.8,1.6,304.6,0.02,11.7,15.5,"07:29:12",1
"16/10/25","07:40",0.0,13.9,88.0,1012.8,324.1,0.7,1.3,325.9,0.02,12.0,15.7,"07:30:08",1
"16/10/25","07:50",0.0,14.4,88.0,1012.8,303.9,1.0,1.6,324.7,0.04,12.5,15.7,"07:42:48",1
"16/10/25","08:00",0.0,14.9,86.5,1013.0,306.0,1.0,1.4,340.9,0.05,12.7,15.7,"07:57:04",1
"16/10/25","08:10",0.0,15.5,84.9,1013.3,295.7,0.8,1.2,307.0,0.05,13.0,15.8,"08:09:04",1
"16/10/25","08:20",0.0,15.9,83.3,1013.3,290.5,0.6,1.0,304.5,0.04,13.1,15.9,"08:10:56",1
"16/10/25","08:30",0.0,16.6,80.7,1013.0,285.2,0.6,1.0,303.0,0.10,13.3,16.1,"08:25:28",1
"16/10/25","08:40",0.0,17.1,77.7,1013.3,338.7,0.5,1.0,30.1,0.10,13.2,16.2,"08:38:00",1
"16/10/25","08:50",0.0,17.3,76.7,1013.3,36.8,0.7,1.8,350.3,0.08,13.2,16.4,"08:42:32",1
"16/10/25","09:00",0.0,17.5,76.6,1013.3,348.6,0.6,2.0,313.2,0.09,13.4,16.3,"08:53:36",1
"16/10/25","09:10",0.0,17.7,76.3,1013.3,20.6,0.5,1.7,81.2,0.08,13.5,16.3,"09:00:08",1
"16/10/25","09:20",0.0,17.6,77.3,1012.8,46.1,0.7,1.8,82.0,0.11,13.6,16.7,"09:15:44",1
"16/10/25","09:30",0.0,17.7,78.2,1013.0,35.7,0.8,2.2,350.8,0.11,13.9,16.6,"09:20:48",1
"16/10/25","09:40",0.0,17.5,79.8,1012.3,72.7,0.8,2.2,82.9,0.09,14.0,16.6,"09:36:00",1
"16/10/25","09:50",0.0,17.2,80.8,1012.6,14.3,0.8,1.8,329.4,0.07,13.9,17.0,"09:44:32",1
"16/10/25","10:00",0.0,17.2,81.8,1012.3,340.8,0.3,1.0,309.9,0.07,14.1,16.8,"09:54:48",1
"16/10/25","10:10",0.0,17.4,81.6,1012.1,357.4,0.8,2.0,343.6,0.08,14.3,16.9,"10:08:40",1
"16/10/25","10:20",0.0,17.5,81.5,1011.9,351.1,0.5,1.1,342.5,0.07,14.3,17.1,"10:15:52",1
"16/10/25","10:30",0.0,17.5,81.3,1012.6,25.0,0.5,1.0,12.6,0.03,14.3,17.1,"10:20:40",1
"16/10/25","10:40",0.0,17.3,81.3,1012.3,148.0,0.7,2.6,155.2,0.03,14.1,17.2,"10:39:44",1
"16/10/25","10:50",0.0,17.5,82.7,1012.3,147.3,0.6,2.2,139.9,0.09,14.6,17.1,"10:48:00",1
"16/10/25","11:00",0.2,17.4,85.0,1011.9,97.6,0.6,2.5,125.4,0.12,14.9,17.2,"10:50:56",1
"16/10/25","11:10",0.0,17.3,87.4,1012.1,307.8,0.7,1.6,107.1,0.13,15.2,17.2,"11:06:48",1
"16/10/25","11:20",0.2,17.3,87.1,1011.9,345.3,1.0,2.1,343.2,0.16,15.2,17.2,"11:14:40",1
"16/10/25","11:30",0.0,17.5,88.1,1012.1,16.8,0.8,2.1,340.7,0.19,15.5,17.5,"11:28:08",1
"16/10/25","11:40",0.0,17.5,86.6,1012.1,7.9,0.8,2.1,342.7,0.10,15.3,17.7,"11:36:48",1
"16/10/25","11:50",0.0,17.7,86.8,1011.6,3.3,0.8,1.7,92.0,0.15,15.5,17.7,"11:40:40",1
"16/10/25","12:00",0.0,17.8,84.8,1011.9,8.7,0.8,2.5,15.1,0.18,15.2,17.9,"11:58:56",1
"16/10/25","12:10",0.0,17.8,84.1,1011.4,12.1,1.1,2.6,58.0,0.11,15.1,17.8,"12:04:56",1
"16/10/25","12:20",0.0,18.2,84.8,1011.2,349.0,0.6,1.7,155.7,0.12,15.6,18.1,"12:19:44",1
"16/10/25","12:30",0.0,18.5,82.3,1011.2,346.7,0.8,2.2,123.9,0.14,15.5,17.9,"12:22:00",1
"16/10/25","12:40",0.0,18.4,84.3,1010.7,56.7,0.8,2.4,102.9,0.15,15.7,17.9,"12:32:24",1
"16/10/25","12:50",0.0,17.7,86.6,1010.7,68.1,1.0,2.5,107.4,0.11,15.5,17.7,"12:45:52",1
"16/10/25","13:00",0.0,17.7,86.3,1010.7,60.6,1.0,2.5,85.7,0.08,15.4,18.1,"12:50:32",1
"16/10/25","13:10",0.2,17.7,86.5,1010.7,59.1,0.8,2.5,163.6,0.07,15.5,17.8,"13:07:36",1
"16/10/25","13:20",0.0,17.5,87.6,1010.2,159.5,0.7,2.0,89.2,0.04,15.5,18.1,"13:14:00",1
"16/10/25","13:30",0.2,17.2,88.0,1010.2,189.0,0.8,2.7,175.8,0.03,15.2,17.9,"13:24:48",1
"16/10/25","13:40",1.6,16.9,89.0,1010.7,169.4,0.8,3.7,107.3,0.02,15.1,18.0,"13:30:32",1
"16/10/25","13:50",0.2,16.8,90.3,1010.7,143.2,0.6,1.7,116.2,0.03,15.2,17.9,"13:47:12",1
"16/10/25","14:00",0.2,16.8,91.1,1010.4,33.4,0.7,2.5,101.2,0.03,15.4,17.9,"13:52:48",1
"16/10/25","14:10",0.0,16.8,91.5,1010.7,353.3,0.7,2.1,333.6,0.04,15.4,18.0,"14:08:08",1
"16/10/25","14:20",0.2,16.9,91.9,1010.4,346.5,0.5,1.1,324.8,0.03,15.6,17.9,"14:13:44",1
"16/10/25","14:30",0.0,17.1,91.9,1010.4,323.5,0.6,1.4,338.8,0.08,15.8,18.1,"14:23:44",1
"16/10/25","14:40",0.0,17.5,91.4,1010.2,353.5,0.6,1.2,83.1,0.10,16.1,18.1,"14:32:40",1
"16/10/25","14:50",0.0,17.5,90.5,1010.0,108.4,0.5,1.8,132.1,0.13,16.0,18.0,"14:49:12",1
"16/10/25","15:00",0.0,18.0,88.9,1010.0,37.7,0.6,1.4,117.2,0.11,16.2,18.2,"14:52:40",1
"16/10/25","15:10",0.0,17.9,88.6,1010.2,339.4,0.6,1.3,123.8,0.05,16.0,18.3,"15:00:24",1
"16/10/25","15:20",0.0,17.9,87.1,1010.0,347.1,0.7,2.0,352.1,0.10,15.8,18.3,"15:13:28",1
"16/10/25","15:30",0.0,18.4,85.8,1010.4,356.8,1.0,2.2,3.0,0.16,16.0,18.3,"15:27:44",1
"16/10/25","15:40",0.0,18.4,86.1,1010.2,344.5,1.0,2.2,333.9,0.07,16.1,18.3,"15:35:44",1
"16/10/25","15:50",0.0,18.3,85.7,1010.2,346.5,0.8,2.1,347.4,0.05,15.9,18.4,"15:42:48",1
"16/10/25","16:00",0.0,18.2,86.1,1010.0,349.2,0.8,1.7,335.4,0.03,15.9,18.4,"15:55:12",1
"16/10/25","16:10",0.0,18.1,86.3,1009.7,348.9,0.6,1.3,309.4,0.03,15.8,18.3,"16:00:08",1
"16/10/25","16:20",0.0,18.1,86.4,1010.0,340.9,0.5,1.1,321.0,0.01,15.8,18.5,"16:12:08",1
"16/10/25","16:30",0.0,17.9,86.8,1009.5,322.5,0.8,1.9,344.8,0.00,15.7,18.4,"16:25:20",1
"16/10/25","16:40",0.0,17.9,87.8,1009.7,333.2,0.8,1.6,320.2,0.00,15.9,18.5,"16:35:36",1
"16/10/25","16:50",0.0,17.7,88.3,1010.0,336.1,0.8,1.6,333.8,0.00,15.8,18.3,"16:42:24",1
"16/10/25","17:00",0.0,17.5,88.5,1009.7,333.5,0.8,1.6,335.5,0.00,15.6,18.3,"16:52:08",1
"16/10/25","17:10",0.0,17.4,88.7,1010.0,330.6,0.3,1.0,305.5,0.00,15.6,18.3,"17:02:40",1
"16/10/25","17:20",0.0,17.3,89.2,1009.7,326.1,0.6,1.0,340.1,0.00,15.5,18.2,"17:15:20",1
"16/10/25","17:30",0.0,17.2,90.2,1009.7,293.9,0.6,0.8,276.4,0.00,15.6,18.2,"17:23:28",1
"16/10/25","17:40",0.0,17.1,91.0,1009.5,315.9,0.8,1.2,333.0,0.00,15.7,18.2,"17:35:20",1
"16/10/25","17:50",0.0,17.0,91.8,1009.7,311.1,0.7,1.0,332.3,0.00,15.7,18.2,"17:41:36",1
"16/10/25","18:00",0.0,16.9,92.3,1010.0,279.5,0.3,0.6,287.9,0.00,15.7,18.2,"17:52:24",1
"16/10/25","18:10",0.2,16.8,92.9,1010.2,303.4,0.2,1.2,308.6,0.00,15.7,18.1,"18:09:36",1
"16/10/25","18:20",0.4,16.7,93.4,1010.0,299.1,0.6,1.3,304.9,0.00,15.7,18.2,"18:10:24",1
"16/10/25","18:30",0.2,16.7,93.7,1010.0,305.9,0.5,1.1,323.9,0.00,15.7,17.9,"18:26:40",1
"16/10/25","18:40",0.2,16.6,94.1,1010.0,279.8,0.8,1.2,246.8,0.00,15.7,18.1,"18:36:24",1
"16/10/25","18:50",0.0,16.6,94.4,1010.2,312.0,0.7,1.4,315.4,0.00,15.7,18.1,"18:42:08",1
"16/10/25","19:00",0.0,16.6,94.7,1010.4,332.0,0.8,1.3,338.6,0.00,15.8,18.0,"18:56:40",1
"16/10/25","19:10",0.0,16.5,94.9,1010.2,317.9,0.7,1.3,338.8,0.00,15.7,18.0,"19:03:28",1
"16/10/25","19:20",0.0,16.5,95.1,1010.4,323.0,0.5,1.2,322.2,0.00,15.8,17.9,"19:14:56",1
"16/10/25","19:30",0.0,16.5,95.3,1010.2,317.6,1.0,1.3,337.6,0.00,15.8,18.0,"19:25:04",1
"16/10/25","19:40",0.2,16.5,95.5,1010.2,328.1,0.7,1.1,326.2,0.00,15.8,17.9,"19:30:24",1
"16/10/25","19:50",0.0,16.5,95.5,1010.2,341.0,1.2,1.9,341.2,0.00,15.8,18.0,"19:42:40",1
"16/10/25","20:00",0.0,16.4,95.7,1010.2,331.7,1.0,1.4,351.2,0.00,15.8,17.9,"19:53:36",1
"16/10/25","20:10",0.0,16.4,95.8,1010.4,311.1,1.0,1.2,266.5,0.00,15.8,18.1,"20:01:20",1
"16/10/25","20:20",0.0,16.4,96.0,1010.2,311.5,1.0,1.7,336.2,0.00,15.8,18.1,"20:11:52",1
"16/10/25","20:30",0.0,16.4,96.1,1010.4,319.2,1.1,1.6,312.5,0.00,15.8,18.0,"20:25:04",1
"16/10/25","20:40",0.0,16.4,96.1,1010.4,314.5,0.7,1.4,332.1,0.00,15.8,18.0,"20:39:28",1
"16/10/25","20:50",0.0,16.4,96.3,1010.4,314.1,1.0,1.7,321.4,0.00,15.8,17.9,"20:44:48",1
"16/10/25","21:00",0.0,16.5,96.4,1010.4,312.9,0.8,1.4,349.6,0.00,16.0,17.8,"20:59:52",1
"16/10/25","21:10",0.0,16.4,96.4,1010.7,315.8,1.2,1.8,333.2,0.00,15.9,17.9,"21:01:20",1
"16/10/25","21:20",0.0,16.5,96.5,1010.7,317.5,1.1,1.7,316.6,0.00,16.0,18.0,"21:19:28",1
"16/10/25","21:30",0.0,16.5,96.5,1010.9,321.4,1.2,1.8,331.1,0.00,16.0,17.7,"21:20:08",1
"16/10/25","21:40",0.0,16.4,96.5,1010.9,315.8,1.0,1.3,285.3,0.00,15.9,17.7,"21:33:52",1
"16/10/25","21:50",0.0,16.4,96.7,1010.9,309.6,0.8,1.3,282.6,0.00,15.9,17.8,"21:44:56",1
"16/10/25","22:00",0.0,16.4,96.8,1010.7,314.3,0.7,1.2,294.5,0.00,15.9,17.9,"21:51:04",1
"16/10/25","22:10",0.0,16.4,96.8,1010.9,323.8,1.1,1.9,328.0,0.00,15.9,17.8,"22:05:20",1
"16/10/25","22:20",0.0,16.5,96.8,1010.7,317.3,1.1,1.4,308.4,0.00,16.0,17.6,"22:12:16",1
"16/10/25","22:30",0.0,16.4,96.8,1010.7,338.1,0.6,1.7,317.2,0.00,15.9,17.8,"22:23:44",1
"16/10/25","22:40",0.0,16.4,97.0,1010.9,296.9,0.7,1.4,326.5,0.00,16.0,17.8,"22:39:36",1
"16/10/25","22:50",0.0,16.5,97.0,1010.9,327.1,1.6,2.0,335.2,0.00,16.1,17.7,"22:40:40",1
"16/10/25","23:00",0.0,16.5,97.0,1010.9,330.2,1.3,1.9,334.1,0.00,16.1,17.8,"22:52:16",1
"16/10/25","23:10",0.0,16.5,97.0,1010.4,313.3,1.2,1.7,323.9,0.00,16.1,17.9,"23:00:48",1
"16/10/25","23:20",0.0,16.5,97.1,1010.4,306.1,1.1,1.6,321.0,0.00,16.1,17.9,"23:17:28",1
"16/10/25","23:30",0.0,16.5,97.1,1010.4,311.6,1.0,1.2,304.2,0.00,16.1,17.8,"23:20:16",1
"16/10/25","23:40",0.0,16.5,97.2,1010.7,328.3,1.5,1.9,324.9,0.00,16.1,17.8,"23:35:52",1
"16/10/25","23:50",0.0,16.5,97.2,1010.4,318.0,0.8,1.3,316.7,0.00,16.1,17.8,"23:42:24",1
"16/10/25","24:00",0.0,16.5,97.2,1010.4,312.8,1.1,1.4,314.4,0.00,16.1,17.7,"23:53:20",1
